EW6618 Weather Reports


Display with metric or nautical units.
time (UTC)temp
F
wind
direction
speed
MPH
gust
MPH
rain 1hr
in
rain 24hr
in
rain mn
in
humidity
%
barometer
mb
20260904033748 69 259 5.0 8.0 0.00 0.00 0.00 86 1012.1
20260904032740 69 209 6.0 9.0 0.00 0.00 0.00 85 1012.0
20260904031753 69 326 5.0 9.0 0.00 0.00 0.00 85 1012.0
20260904030808 69 268 6.0 10.0 0.00 0.00 0.00 85 1011.9
20260904025825 69 271 5.0 10.0 0.00 0.00 0.00 84 1011.8
20260904024756 69 237 6.0 10.0 0.00 0.00 0.00 83 1011.9
20260904023819 70 138 6.0 9.0 0.00 0.00 0.00 83 1011.9
20260904022821 70 255 6.0 9.0 0.00 0.00 0.00 82 1011.9
20260904020736 71 283 6.0 9.0 0.00 0.00 0.00 80 1011.9
20260904015706 72 207 4.0 11.0 0.00 0.00 0.00 80 1011.9
20260904014635 72 216 5.0 11.0 0.00 0.00 0.00 79 1012.0
20260904013627 73 237 5.0 9.0 0.00 0.00 0.00 79 1012.1
20260904012629 73 212 6.0 11.0 0.00 0.00 0.00 79 1012.1
20260904011626 73 225 6.0 11.0 0.00 0.00 0.00 78 1012.0
20260904010612 73 327 7.0 11.0 0.00 0.00 0.00 77 1012.0
20260904005628 73 4 7.0 11.0 0.00 0.00 0.00 77 1012.0
20260904004640 74 274 7.0 9.0 0.00 0.00 0.00 76 1012.1
20260904003612 73 113 7.0 13.0 0.00 0.00 0.00 77 1012.1
20260904002610 74 238 8.0 13.0 0.00 0.00 0.00 76 1012.2
20260904001615 74 249 8.0 12.0 0.00 0.00 0.00 75 1012.4
20260904000628 74 228 8.0 11.0 0.00 0.00 0.00 76 1012.3
20260903235607 74 208 8.0 11.0 0.00 0.00 0.00 76 1012.3
20260903234551 74 252 7.0 13.0 0.00 0.00 0.00 75 1012.4
20260903233559 75 252 7.0 13.0 0.00 0.00 0.00 75 1012.3
20260903232550 75 218 7.0 11.0 0.00 0.00 0.00 74 1012.5
20260903231538 75 103 8.0 11.0 0.00 0.00 0.00 74 1012.5
20260903230557 75 288 8.0 11.0 0.00 0.00 0.00 74 1012.6
20260903225539 75 178 8.0 13.0 0.00 0.00 0.00 74 1012.6
20260903224541 75 205 8.0 13.0 0.00 0.00 0.00 75 1012.6
20260903223532 75 217 8.0 13.0 0.00 0.00 0.00 75 1012.9
20260903222520 75 267 8.0 12.0 0.00 0.00 0.00 74 1013.1
20260903221527 75 217 8.0 13.0 0.00 0.00 0.00 75 1013.2
20260903220458 76 282 8.0 13.0 0.00 0.00 0.00 74 1013.3
20260903215438 75 308 8.0 13.0 0.00 0.00 0.00 75 1013.5
20260903211002 76 240 8.0 14.0 0.00 0.00 0.00 74 1013.6
20260903210001 76 66 8.0 12.0 0.00 0.00 0.00 73 1013.6
20260903205018 77 314 8.0 13.0 0.00 0.00 0.00 72 1013.8
20260903204020 77 204 8.0 13.0 0.00 0.00 0.00 73 1013.7
20260903203015 77 213 7.0 13.0 0.00 0.00 0.00 71 1013.7
20260903201959 77 218 7.0 11.0 0.00 0.00 0.00 72 1013.7
20260903200948 77 178 5.0 11.0 0.00 0.00 0.00 71 1013.8
20260903195944 77 41 6.0 11.0 0.00 0.00 0.00 72 1013.9
20260903194952 77 278 6.0 10.0 0.00 0.00 0.00 72 1014.0
20260903193933 77 221 6.0 10.0 0.00 0.00 0.00 72 1014.0
20260903192942 77 298 6.0 10.0 0.00 0.00 0.00 72 1014.2
20260903191954 76 281 6.0 8.0 0.00 0.00 0.00 73 1014.4
20260903191007 76 324 6.0 9.0 0.00 0.00 0.00 72 1014.5
20260903185955 76 224 5.0 9.0 0.00 0.00 0.00 72 1014.6
20260903185014 76 248 5.0 9.0 0.00 0.00 0.00 72 1014.6
20260903184005 76 224 4.0 8.0 0.00 0.00 0.00 72 1014.8
20260903183025 76 238 4.0 8.0 0.00 0.00 0.00 72 1014.7
20260903182004 76 247 3.0 8.0 0.00 0.00 0.00 72 1014.9
20260903175818 76 0 3.0 7.0 0.00 0.00 0.00 73 1014.9
20260903173707 76 18 2.0 6.0 0.00 0.00 0.00 73 1014.8
20260903172633 75 343 1.0 5.0 0.00 0.00 0.00 74 1014.9
20260903171648 75 226 2.0 5.0 0.00 0.00 0.00 75 1015.0
20260903170616 75 13 1.0 4.0 0.00 0.00 0.00 74 1014.9
20260903164503 73 234 0.0 3.0 0.00 0.00 0.00 77 1014.8
20260903163433 73 123 0.0 3.0 0.00 0.00 0.00 77 1014.8
20260903162429 72 146 0.0 2.0 0.00 0.00 0.00 79 1014.8
20260903161420 71 150 0.0 2.0 0.00 0.00 0.00 82 1014.9
20260903160427 70 188 0.0 2.0 0.00 0.00 0.00 81 1014.8
20260903155354 70 188 0.0 2.0 0.00 0.00 0.00 81 1014.9
20260903154407 70 138 0.0 3.0 0.00 0.00 0.00 82 1014.9
20260903153350 70 142 1.0 4.0 0.00 0.00 0.00 83 1014.8
20260903152352 69 216 1.0 4.0 0.00 0.00 0.00 83 1014.7
20260903151409 69 22 1.0 4.0 0.00 0.00 0.00 84 1014.7
20260903150421 69 129 1.0 3.0 0.00 0.00 0.00 84 1014.7
20260903145402 68 136 1.0 3.0 0.00 0.00 0.00 85 1014.7
20260903144407 68 155 0.0 2.0 0.00 0.00 0.00 85 1014.5
20260903143337 68 123 0.0 3.0 0.00 0.00 0.00 86 1014.3
20260903142313 67 134 0.0 3.0 0.00 0.00 0.00 86 1014.3
20260903141328 67 210 1.0 3.0 0.00 0.00 0.00 87 1014.2
20260903140326 67 142 0.0 3.0 0.00 0.00 0.00 87 1014.2
20260903135310 67 141 0.0 2.0 0.00 0.00 0.00 87 1014.1
20260903134313 67 155 0.0 0.0 0.00 0.00 0.00 87 1014.1
20260903133241 67 155 0.0 1.0 0.00 0.00 0.00 88 1014.1
20260903132224 67 155 0.0 3.0 0.00 0.00 0.00 87 1014.1
20260903131249 67 169 0.0 4.0 0.00 0.00 0.00 88 1014.1
20260903130224 67 151 1.0 4.0 0.00 0.00 0.00 87 1014.0
20260903125244 67 210 1.0 3.0 0.00 0.00 0.00 88 1014.0
20260903124239 67 207 1.0 3.0 0.00 0.00 0.00 88 1013.9
20260903123231 68 262 1.0 5.0 0.00 0.00 0.00 88 1014.0
20260903122159 68 139 1.0 5.0 0.00 0.00 0.00 88 1013.9
20260903121138 68 131 1.0 3.0 0.00 0.00 0.00 88 1013.9
20260903120117 68 89 1.0 4.0 0.00 0.00 0.00 88 1014.0
20260903115115 68 118 1.0 5.0 0.00 0.00 0.00 88 1014.0
20260903114117 68 99 1.0 5.0 0.00 0.00 0.00 88 1014.1
20260903113046 68 18 1.0 5.0 0.00 0.00 0.00 89 1014.2
20260903112038 68 142 1.0 4.0 0.00 0.00 0.00 88 1014.1
20260903111021 68 135 1.0 6.0 0.00 0.00 0.00 88 1014.1
20260903110041 68 212 1.0 6.0 0.00 0.00 0.00 89 1014.2
20260903103932 68 284 1.0 4.0 0.00 0.00 0.00 89 1014.2
20260903101813 68 15 3.0 6.0 0.00 0.00 0.00 89 1014.3
20260903100745 68 87 3.0 8.0 0.00 0.00 0.00 88 1014.4
20260903095711 68 233 4.0 9.0 0.00 0.00 0.00 88 1014.3
20260903094718 68 217 4.0 9.0 0.00 0.00 0.00 88 1014.4
20260903093658 68 248 5.0 8.0 0.00 0.00 0.00 88 1014.4
20260903092700 68 174 5.0 8.0 0.00 0.00 0.00 87 1014.5
20260903091634 68 222 4.0 10.0 0.00 0.00 0.00 87 1014.5
20260903090610 69 211 5.0 10.0 0.00 0.00 0.00 87 1014.7
20260903085558 68 260 5.0 8.0 0.00 0.00 0.00 87 1014.7
20260903084557 69 250 4.0 7.0 0.00 0.00 0.00 87 1014.8
20260903082414 69 266 4.0 6.0 0.00 0.00 0.00 86 1015.0
20260903081352 69 252 4.0 6.0 0.00 0.00 0.00 86 1014.9
20260903080404 69 264 4.0 6.0 0.00 0.00 0.00 86 1015.1
20260903075337 69 248 4.0 7.0 0.00 0.00 0.00 86 1015.2
20260903074323 69 226 5.0 9.0 0.00 0.00 0.00 86 1015.0
20260903073322 70 266 5.0 9.0 0.00 0.00 0.00 85 1015.0
20260903072306 70 224 5.0 9.0 0.00 0.00 0.00 85 1015.0
20260903071233 70 266 6.0 9.0 0.00 0.00 0.00 84 1015.0
20260903070226 70 281 5.0 9.0 0.00 0.00 0.00 85 1015.0
20260903065233 69 226 5.0 9.0 0.00 0.00 0.00 85 1014.9
20260903063042 69 245 5.0 9.0 0.00 0.00 0.00 85 1014.9
20260903062028 69 249 5.0 11.0 0.00 0.00 0.00 86 1014.9
20260903061017 70 274 6.0 11.0 0.00 0.00 0.00 86 1014.9
20260903060032 70 221 7.0 11.0 0.00 0.00 0.00 86 1014.8
20260903055033 70 292 8.0 12.0 0.00 0.00 0.00 85 1014.7
20260903054028 70 289 8.0 12.0 0.00 0.00 0.00 84 1014.7
20260903053022 70 321 8.0 14.0 0.00 0.00 0.00 84 1014.7
20260903050857 71 281 9.0 13.0 0.00 0.00 0.00 82 1014.7
20260903042533 72 244 6.0 10.0 0.00 0.00 0.00 79 1014.5
20260903041504 71 290 7.0 11.0 0.00 0.00 0.00 79 1014.4